Flag for Germany Weather past 2 weeks in Weinheim, Baden-Württemberg, Germany

Now
54 °F

Fog.


Feels Like: 54 °F
Forecast: 52 / 69 °F
Wind: 1 mph from North

Location: Baden Wurttemberg - Neuostheim

Current Time: Oct 2, 2014 at 7:28:22 AM

Latest Report: Oct 2, 2014 at 6:50 AM


Visibility: 0 mi

Pressure: 30.36 "Hg

Humidity: 100%

Dew point: 54 °F

Location of WeinheimLocation

Historic Weather in Weinheim — Graph

°F

Weinheim temperature yesterday

Maximum temperature yesterday: 73 °F (at 3:50 PM)
Minimum temperature yesterday: 57 °F (at 7:20 AM)
Average temperature yesterday: 66 °F

Past Weeks' High & Low Weather Summary

 TemperatureHumidityPressure
High79 °F (Sep 17, 3:20 PM)100% (Sep 17, 6:20 AM)30.36 "Hg (Sep 17, 6:20 AM)
Low41 °F (Sep 23, 6:20 AM)39% (Sep 17, 4:20 PM)29.86 "Hg (Sep 17, 3:20 PM)
Average64 °F73%30.11 "Hg
* Reported Sep 17 6:20 AM — Oct 2 6:20 AM, Weinheim, Weather by CustomWeather, © 2014

Note: Actual official high and low records may vary slightly from our data, if they occured in-between our weather recording intervals... More about our weather records

Advertising

Weinheim weather history for previous 24 hours

 ConditionsComfort  
Time TempWeatherWind HumidityBarometerVisibility
6:20 AM
Oct 2
54 °FFog.2 mph100%30.36 "Hg1 mi
5:50 AM54 °FCool.3 mph100%30.36 "Hg1 mi
5:20 AM54 °FCool.3 mph100%30.36 "Hg1 mi
9:20 PM
Oct 1
61 °FClear.1 mph83%30.33 "Hg10 mi
8:50 PM61 °FClear.1 mph83%30.33 "Hg10 mi
8:20 PM63 °FClear.2 mph77%30.33 "Hg10 mi
7:50 PM64 °FSunny.3 mph68%30.33 "Hg10 mi
7:20 PM66 °FSunny.5 mph64%30.30 "Hg10 mi
6:50 PM68 °FSunny.6 mph60%30.30 "Hg10 mi
6:20 PM72 °FSunny.3 mph53%30.30 "Hg10 mi
5:50 PM72 °FPassing clouds.6 mph53%30.30 "HgN/A
5:20 PM72 °FPassing clouds.6 mph53%30.30 "HgN/A
4:50 PM72 °FPassing clouds.7 mph57%30.30 "HgN/A
4:20 PM72 °FScattered clouds.6 mph57%30.30 "HgN/A
3:50 PM73 °FPartly sunny.3 mph53%30.30 "HgN/A
3:20 PM72 °FPassing clouds.2 mph53%30.30 "HgN/A
2:50 PM72 °FScattered clouds.2 mph57%30.30 "HgN/A
2:20 PM70 °FPassing clouds.3 mph57%30.30 "HgN/A
1:50 PM72 °FPartly sunny.2 mph57%30.30 "HgN/A
1:20 PM70 °FPassing clouds.3 mph60%30.33 "HgN/A
12:50 PM72 °FScattered clouds.2 mph65%30.33 "Hg6 mi
12:20 PM70 °FScattered clouds.2 mph69%30.33 "Hg5 mi
11:50 AM68 °FPartly sunny.2 mph69%30.33 "Hg4 mi
11:20 AM66 °FScattered clouds.2 mph73%30.33 "Hg4 mi
10:50 AM64 °FPartly sunny.2 mph88%30.33 "Hg4 mi
10:20 AM64 °FPartly sunny.2 mph83%30.33 "Hg4 mi
9:50 AM63 °FFog.1 mph88%30.33 "Hg3 mi
9:20 AM61 °FFog.No wind100%30.33 "Hg3 mi
8:50 AM61 °FFog.1 mph94%30.30 "Hg2 mi
8:20 AM59 °FFog.2 mph100%30.30 "Hg2 mi
7:50 AM59 °FFog.1 mph94%30.30 "Hg2 mi
7:20 AM57 °FFog.No wind100%30.30 "Hg3 mi
Weather by CustomWeather, © 2014

See weather overviewHow to use our weather pages